Location: Ash Swamp
(41.5170°N, 74.6157°W)
Time: 06:46:53
(UTC+00:00)

Cosmos 1656 Rocket - Pass Details

Date: 14 July 2020
Orbit: 797 x 845 km, 71.1° (Epoch: 04 August)

Event Time Altitude Azimuth Distance (km) Brightness Sun altitude
Rises 03:52:08 0° 342° (NNW) 3,310 8.2 -24.7°
Reaches altitude 10° 03:54:42 10° 350° (N) 2,378 7.1 -24.8°
Maximum altitude 03:59:48 41° 60° (ENE) 1,158 4.4 -25.1°
Enters shadow 04:00:57 36° 90° (E) 1,250 4.4 -25.2°
